Location: Songkhla
(7.2000°N, 100.6000°E)
Time: 20:14:28
(UTC+07:00)

SL-24 R/B - Pass Details

Date: 16 April 2026
Orbit: 623 x 1072 km, 98.0° (Epoch: 20 May)

Event Time Altitude Azimuth Distance (km) Brightness Sun altitude
Rises 19:50:06 0° 10° (N) 3,290 7.8 -21.2°
Reaches altitude 10° 19:52:32 10° 9° (N) 2,294 7.0 -21.8°
Maximum altitude 19:57:31 80° 282° (WNW) 717 4.3 -23.0°
Drops below altitude 10° 20:02:01 10° 195° (SSW) 2,075 6.7 -24.1°
Sets 20:04:08 0° 194° (SSW) 2,952 7.5 -24.6°
